When you browse on this site, cookies collect data to enhance your experience and personalize the content and advertising you see.
Visit our Privacy Policy to learn more. By continuing to use the site, you agree to this use of cookies and data.
  • In Schweiz
  • Länderverzeichnis
  • Für 7 Tage
  • Wassertemperatur
  • Satellitenkarten
  • Wetterkarte
  • Widgets
  • user-avatar
    Anmelden

    Stündliche Wetter Popelevo

    Heute, 23 Januar, Mittwoch

    Zeit Temperatur Niederschläge Wind Luftdruck Luftfeuchtigkeit
    00:00 -7°C° 0 mm 2 m/S 745 mmHg 92%
    01:00 -8°C° 0 mm 2 m/S 745 mmHg 93%
    02:00 -9°C° 0 mm 2 m/S 744 mmHg 93%
    03:00 -9°C° 0 mm 2 m/S 744 mmHg 93%
    04:00 -10°C° 0 mm 2 m/S 744 mmHg 93%
    05:00 -10°C° 0 mm 2 m/S 744 mmHg 93%
    06:00 -10°C° 0 mm 2 m/S 743 mmHg 93%
    07:00 -13°C° 0 mm 3 m/S 743 mmHg 94%
    08:00 -13°C° 0 mm 3 m/S 743 mmHg 94%
    09:00 -12°C° 0 mm 3 m/S 743 mmHg 93%
    10:00 -12°C° 0 mm 3 m/S 743 mmHg 92%
    11:00 -10°C° 0 mm 3 m/S 743 mmHg 90%
    12:00 -10°C° 0 mm 3 m/S 743 mmHg 89%
    13:00 -9°C° 0 mm 3 m/S 742 mmHg 87%
    14:00 -9°C° 0 mm 3 m/S 742 mmHg 86%
    15:00 -9°C° 0 mm 3 m/S 742 mmHg 86%
    16:00 -9°C° 0 mm 3 m/S 742 mmHg 87%
    17:00 -9°C° 0 mm 3 m/S 742 mmHg 87%
    18:00 -9°C° 0 mm 3 m/S 742 mmHg 88%
    19:00 -9°C° 0 mm 3 m/S 742 mmHg 88%
    20:00 -9°C° 0 mm 3 m/S 742 mmHg 89%
    21:00 -9°C° 0 mm 3 m/S 742 mmHg 89%
    22:00 -10°C° 0 mm 3 m/S 742 mmHg 90%
    23:00 -10°C° 0 mm 3 m/S 743 mmHg 91%

    Morgen, 24 Januar, Donnerstag

    Zeit Temperatur Niederschläge Wind Luftdruck Luftfeuchtigkeit
    00:00 -10°C° 0 mm 3 m/S 743 mmHg 91%
    01:00 -12°C° 0 mm 3 m/S 743 mmHg 92%
    02:00 -12°C° 0 mm 3 m/S 743 mmHg 93%
    03:00 -12°C° 0 mm 3 m/S 743 mmHg 93%
    04:00 -12°C° 0 mm 3 m/S 743 mmHg 93%
    05:00 -12°C° 0 mm 3 m/S 743 mmHg 93%
    06:00 -12°C° 0 mm 3 m/S 743 mmHg 93%
    07:00 -12°C° 0 mm 3 m/S 743 mmHg 92%
    08:00 -12°C° 0 mm 3 m/S 744 mmHg 92%
    09:00 -12°C° 0 mm 3 m/S 744 mmHg 90%
    10:00 -10°C° 0 mm 3 m/S 744 mmHg 88%
    11:00 -11°C° 0 mm 4 m/S 744 mmHg 87%
    12:00 -10°C° 0 mm 4 m/S 744 mmHg 86%
    13:00 -10°C° 0 mm 4 m/S 744 mmHg 84%
    14:00 -9°C° 0 mm 4 m/S 744 mmHg 83%
    15:00 -10°C° 0 mm 4 m/S 744 mmHg 85%
    16:00 -10°C° 0 mm 4 m/S 744 mmHg 86%
    17:00 -10°C° 0 mm 4 m/S 744 mmHg 87%
    18:00 -11°C° 0 mm 4 m/S 745 mmHg 88%
    19:00 -11°C° 0 mm 4 m/S 745 mmHg 88%
    20:00 -11°C° 0 mm 4 m/S 745 mmHg 88%
    21:00 -11°C° 0 mm 4 m/S 745 mmHg 88%
    22:00 -12°C° 0 mm 4 m/S 745 mmHg 88%
    23:00 -12°C° 0 mm 4 m/S 745 mmHg 88%

    übermorgen, 25 Januar, Freitag

    Zeit Temperatur Niederschläge Wind Luftdruck Luftfeuchtigkeit
    00:00 -12°C° 0 mm 4 m/S 745 mmHg 88%
    01:00 -12°C° 0 mm 4 m/S 745 mmHg 88%
    02:00 -11°C° 0 mm 4 m/S 745 mmHg 87%
    03:00 -12°C° 0 mm 5 m/S 745 mmHg 88%
    04:00 -13°C° 0 mm 5 m/S 745 mmHg 88%
    05:00 -13°C° 0 mm 5 m/S 744 mmHg 88%
    06:00 -13°C° 0 mm 5 m/S 744 mmHg 88%
    07:00 -13°C° 0 mm 5 m/S 744 mmHg 88%
    08:00 -13°C° 0 mm 5 m/S 744 mmHg 89%
    09:00 -13°C° 0.3 mm 5 m/S 744 mmHg 90%
    10:00 -12°C° 0.3 mm 5 m/S 744 mmHg 91%
    11:00 -12°C° 0.3 mm 5 m/S 744 mmHg 92%
    12:00 -12°C° 0.4 mm 5 m/S 744 mmHg 91%
    13:00 -12°C° 0.4 mm 5 m/S 744 mmHg 91%
    14:00 -12°C° 0.4 mm 5 m/S 744 mmHg 91%
    15:00 -12°C° 0.5 mm 5 m/S 744 mmHg 92%
    16:00 -11°C° 0.5 mm 4 m/S 744 mmHg 93%
    17:00 -11°C° 0.5 mm 4 m/S 744 mmHg 93%
    18:00 -11°C° 0.2 mm 4 m/S 744 mmHg 93%
    19:00 -11°C° 0.2 mm 4 m/S 744 mmHg 92%
    20:00 -11°C° 0.2 mm 4 m/S 744 mmHg 92%
    21:00 -11°C° 0.1 mm 4 m/S 744 mmHg 92%
    22:00 -9°C° 0.1 mm 3 m/S 744 mmHg 92%
    23:00 -9°C° 0.1 mm 3 m/S 744 mmHg 93%

    26 Januar, Samstag

    Zeit Temperatur Niederschläge Wind Luftdruck Luftfeuchtigkeit
    00:00 -9°C° 0.1 mm 3 m/S 743 mmHg 93%
    01:00 -8°C° 0.1 mm 2 m/S 743 mmHg 93%
    02:00 -8°C° 0.1 mm 2 m/S 743 mmHg 93%
    03:00 -8°C° 0.1 mm 2 m/S 743 mmHg 94%
    04:00 -8°C° 0.1 mm 2 m/S 742 mmHg 94%
    05:00 -7°C° 0.1 mm 1 m/S 742 mmHg 95%
    06:00 -6°C° 0.1 mm 1 m/S 742 mmHg 95%
    07:00 -6°C° 0.1 mm 1 m/S 742 mmHg 95%
    08:00 -6°C° 0.1 mm 1 m/S 742 mmHg 95%
    09:00 -6°C° 0 mm 1 m/S 742 mmHg 94%
    10:00 -5°C° 0 mm 0 m/S 742 mmHg 93%
    11:00 -5°C° 0 mm 0 m/S 742 mmHg 92%
    12:00 -5°C° 0 mm 0 m/S 742 mmHg 91%
    13:00 -4°C° 0 mm 0 m/S 742 mmHg 90%
    14:00 -4°C° 0 mm 0 m/S 741 mmHg 89%
    15:00 -4°C° 0 mm 0 m/S 741 mmHg 91%
    16:00 -4°C° 0 mm 0 m/S 741 mmHg 92%
    17:00 -4°C° 0 mm 0 m/S 741 mmHg 94%
    18:00 -5°C° 0 mm 0 m/S 741 mmHg 95%
    19:00 -5°C° 0 mm 0 m/S 741 mmHg 95%
    20:00 -6°C° 0 mm 0 m/S 741 mmHg 96%
    21:00 -6°C° 0 mm 0 m/S 741 mmHg 96%
    22:00 -5°C° 0 mm 0 m/S 741 mmHg 96%
    23:00 -5°C° 0 mm 0 m/S 741 mmHg 96%

    27 Januar, Sonntag

    Zeit Temperatur Niederschläge Wind Luftdruck Luftfeuchtigkeit
    00:00 -4°C° 0 mm 1 m/S 740 mmHg 96%
    01:00 -4°C° 0 mm 1 m/S 740 mmHg 96%
    02:00 -4°C° 0 mm 1 m/S 740 mmHg 96%
    03:00 -4°C° 0 mm 1 m/S 740 mmHg 96%
    04:00 -6°C° 0 mm 2 m/S 740 mmHg 96%
    05:00 -6°C° 0 mm 2 m/S 740 mmHg 96%
    06:00 -6°C° 0 mm 2 m/S 740 mmHg 96%
    07:00 -6°C° 0 mm 2 m/S 740 mmHg 96%
    08:00 -7°C° 0 mm 3 m/S 740 mmHg 95%
    09:00 -7°C° 0 mm 3 m/S 740 mmHg 95%
    10:00 -7°C° 0 mm 3 m/S 740 mmHg 94%
    11:00 -7°C° 0 mm 3 m/S 740 mmHg 93%
    12:00 -6°C° 0 mm 3 m/S 740 mmHg 93%
    13:00 -6°C° 0 mm 3 m/S 740 mmHg 93%
    14:00 -5°C° 0 mm 3 m/S 740 mmHg 92%
    15:00 -5°C° 0 mm 3 m/S 740 mmHg 93%
    16:00 -5°C° 0 mm 3 m/S 740 mmHg 93%
    17:00 -6°C° 0 mm 3 m/S 740 mmHg 94%
    18:00 -6°C° 0 mm 3 m/S 740 mmHg 94%
    19:00 -7°C° 0 mm 4 m/S 741 mmHg 94%
    20:00 -7°C° 0 mm 4 m/S 741 mmHg 94%
    21:00 -7°C° 0.1 mm 4 m/S 741 mmHg 94%
    22:00 -7°C° 0.1 mm 4 m/S 742 mmHg 94%
    23:00 -6°C° 0.1 mm 3 m/S 742 mmHg 94%

    28 Januar, Montag

    Zeit Temperatur Niederschläge Wind Luftdruck Luftfeuchtigkeit
    00:00 -7°C° 0.1 mm 3 m/S 742 mmHg 95%
    01:00 -7°C° 0.1 mm 3 m/S 742 mmHg 95%
    02:00 -7°C° 0.1 mm 3 m/S 743 mmHg 95%
    03:00 -8°C° 0.1 mm 3 m/S 743 mmHg 95%
    04:00 -8°C° 0.1 mm 3 m/S 743 mmHg 95%
    05:00 -8°C° 0.1 mm 3 m/S 743 mmHg 95%
    06:00 -8°C° 0.1 mm 3 m/S 743 mmHg 95%
    07:00 -9°C° 0.1 mm 3 m/S 744 mmHg 95%
    08:00 -9°C° 0.1 mm 3 m/S 744 mmHg 95%
    09:00 -9°C° 0 mm 3 m/S 745 mmHg 95%
    10:00 -9°C° 0 mm 3 m/S 745 mmHg 94%
    11:00 -8°C° 0 mm 3 m/S 746 mmHg 94%
    12:00 -8°C° 0 mm 3 m/S 746 mmHg 93%
    13:00 -8°C° 0 mm 3 m/S 746 mmHg 93%
    14:00 -7°C° 0 mm 3 m/S 747 mmHg 92%
    15:00 -7°C° 0 mm 3 m/S 747 mmHg 93%
    16:00 -8°C° 0 mm 3 m/S 747 mmHg 93%
    17:00 -8°C° 0 mm 3 m/S 747 mmHg 94%
    18:00 -8°C° 0 mm 3 m/S 748 mmHg 94%
    19:00 -9°C° 0 mm 3 m/S 748 mmHg 94%
    20:00 -9°C° 0 mm 3 m/S 749 mmHg 94%
    21:00 -10°C° 0 mm 3 m/S 749 mmHg 94%
    22:00 -10°C° 0 mm 3 m/S 749 mmHg 94%
    23:00 -12°C° 0 mm 3 m/S 750 mmHg 95%
    Mehr zeigen